Location: Rounton
(54.4000°N, 1.3500°W)
Time: 01:22:54
(UTC+00:00)

Vanguard 3 - Pass Details

Date: 07 December 2021
Orbit: 508 x 3260 km, 33.3° (Epoch: 19 January)

Event Time Altitude Azimuth Distance (km) Brightness Sun altitude
Exits shadow 00:52:31 15° 126° (SE) 5,755 11.3 -56.5°
Drops below altitude 10° 00:58:47 10° 107° (ESE) 6,145 11.6 -56.1°
Sets 01:06:15 0° 90° (E) 6,932 12.1 -55.6°
